This is the latest recevied weather packets stored in our database for station/object BG4IKR-13. If no packets are shown the sender has not sent any weather packets the latest 10 day(s).
| Time | Temp. | Humidity | Pressure | Rain* | Wind** | Luminosity | Snow |
|---|---|---|---|---|---|---|---|
| 1777975911 | 25° C | 38% | 1002.2 hPa | - | - | - | - |
| 1777974860 | 24.44° C | 38% | 1002.2 hPa | - | - | - | - |
| 1777973816 | 24.44° C | 39% | 1002.2 hPa | - | - | - | - |
| 1777972771 | 24.44° C | 36% | 1002.2 hPa | - | - | - | - |
| 1777971721 | 24.44° C | 37% | 1002.3 hPa | - | - | - | - |
| 1777970694 | 24.44° C | 37% | 1002.4 hPa | - | - | - | - |
| 1777969656 | 25° C | 37% | 1002.5 hPa | - | - | - | - |
| 1777968625 | 25° C | 37% | 1002.5 hPa | - | - | - | - |
| 1777967584 | 25° C | 38% | 1002.6 hPa | - | - | - | - |
| 1777966542 | 24.44° C | 38% | 1002.6 hPa | - | - | - | - |
| 1777966473 | 24.44° C | 38% | 1002.6 hPa | - | - | - | - |
| 1777965421 | 23.89° C | 39% | 1002.8 hPa | - | - | - | - |
| 1777964396 | 23.89° C | 41% | 1003.1 hPa | - | - | - | - |
| 1777963381 | 24.44° C | 43% | 1003.3 hPa | - | - | - | - |
| 1777962344 | 24.44° C | 41% | 1003.5 hPa | - | - | - | - |
| 1777961248 | 23.89° C | 43% | 1003.9 hPa | - | - | - | - |
| 1777961179 | 23.89° C | 43% | 1003.9 hPa | - | - | - | - |
| 1777960146 | 23.33° C | 44% | 1004.2 hPa | - | - | - | - |
| 1777959109 | 23.33° C | 44% | 1004.5 hPa | - | - | - | - |
| 1777958068 | 23.33° C | 45% | 1004.6 hPa | - | - | - | - |
| 1777957037 | 22.78° C | 46% | 1004.7 hPa | - | - | - | - |
| 1777956006 | 23.33° C | 46% | 1004.9 hPa | - | - | - | - |
| 1777955929 | 23.33° C | 47% | 1005 hPa | - | - | - | - |
| 1777954889 | 22.78° C | 48% | 1005.1 hPa | - | - | - | - |
| 1777953869 | 22.78° C | 50% | 1005.4 hPa | - | - | - | - |
* Rain since midnight (hover to see other rain measurements)
** Current wind speed in m/s (hover to see current wind gust speed)